Showing default

YAOGAN-39 04A, 58141

Orbit data source: Space-Track

YAOGAN-39 04A, 58141 is a payload satellite owned by PLA GAD (CN) in LEO that was launched on Mon, 23 Oct 2023 UTC via a CHANG ZHENG 2D launch vehicle from the Xichang Space Center, China (XSC). Payload-class satellites include a variety of spacecraft equipped with specific instruments for various scientific and technological missions. These include communications satellites like Starlink; space stations such as the ISS; scientific satellites like the Hubble; Earth observation satellites from companies like Planet Labs, Umbra, and HawkEye 360; GPS; miniature CubeSats for education and research; and military/defense satellites.

Loading next visibility...
Identifier
58141, 2023-163A
Orbit
LEO
Last TLE update
5 hours ago
Origin
Manufacturer
DFH
Mission
Operational Defense Sigint
Bus & Motor
Unknown
Mass
~300 kg wet, ~300 kg dry
Launch date (UTC)
2023-10-23 (2 years ago)
Launch vehicle
CHANG ZHENG 2D
Launch site
Xichang Space Center, China (XSC)
Object type
Payload
Rocket body
Debris
Shape & HBR
Box + 2 Pan, 5 m
Radar Cross Section
11.063 m², Large (>1 m²)

Expand to show TLE details & history

TLE from 5 hours ago
0 YAOGAN-39 04A
1 58141U 23163A   25181.88014506  .00009326  00000-0  38671-3 0  9991
2 58141  34.9999  34.0795 0005403  60.6301 299.4953 15.23119367 93988
Epoch: 2025-06-30T21:07Z
TLE epoch observation values (Epoch: 2025-06-30T21:07:24.533Z)
Latitude
0.00001°
Longitude
158.04368°
Altitude
493.519 km
Speed
7.621 km/s
True Right ascension
02h 16m 19s
True Declination
0° 00' 00"
Sunlit
Object was in daylight at epoch
Visualization orbit readout
Latitude
8.58373°
Longitude
169.16904°
Altitude
492.112 km
Speed
7.623 km/s
Apparent Right ascension
02h 23m 30s
Apparent Declination
-14° 53' 24"
Sunlit
Object is in daylight
Visualization observer readout
Local Sidereal Time
13:31:32
Azimuth
331.918° NNW
Elevation
-62.517°
Doppler factor
1
Orbital elements
Apogee altitude
503.405 km
Perigee altitude
495.973 km
Semi-major axis
6,877.826 km
Eccentricity
0.00054
Inclination
34.9999°
RAAN
34.0795°
Arg. of periapsis
60.6301°
True anomaly
Unknown
Mean anomaly
299.4953°
Eccentric anomaly
Unknown
Mean motion
3.8051 °/min
Orbital period
94.61 mins
BSTAR
0.00038671
Loading maneuver chart data...
Loading SW <> Apogee altitude chart data...
Loading historical data...
Loading historical data...
Loading historical data...
Loading historical data...
Loading historical data...
Loading historical data...
Loading historical data...
Other satellites on launch #163 in the year 2023 (2023-10-23 UTC)

YAOGAN-39 04A Visibility forecast

Observer location: undefined°, undefined°

Span
Click to sort rows by Start time (UTC) header in descending order
Start Az.
Max El. time (UTC)
Max El. Az.
Max El.
End time (UTC)
End Az.
5 mins2025-07-01 17:48:29.942Z201.076° SSW2025-07-01 17:50:29.942Z167.693° S17.501°2025-07-01 17:53:29.942Z114.772° SE
5 mins2025-07-01 19:28:29.942Z223.547° SW2025-07-01 19:30:29.942Z163.542° S30.209°2025-07-01 19:33:29.942Z107.793° ESE
5 mins2025-07-01 21:07:29.942Z243.477° WSW2025-07-01 21:09:29.942Z196.534° SSW28.989°2025-07-01 21:12:29.942Z128.266° SE
|